Location: *
(38.4303°S, 157.0822°W)
Time: 14:13:07
(UTC+00:00)

DMSP B5D2-2 - Pass Details

Date: 21 May 2024
Orbit: 788 x 803 km, 98.3° (Epoch: 22 June)

Event Time Altitude Azimuth Distance (km) Brightness Sun altitude
Rises 15:44:55 0° 175° (S) 3,319 7.2 -20.1°
Reaches altitude 10° 15:47:21 10° 180° (S) 2,382 6.4 -19.7°
Maximum altitude 15:52:20 45° 251° (WSW) 1,074 4.3 -18.7°
Drops below altitude 10° 15:57:17 10° 323° (NW) 2,357 6.3 -17.8°
Sets 15:59:40 0° 329° (NNW) 3,280 7.1 -17.3°
